[Date Prev][Date Next][Thread Prev][Thread Next] - [Date Index][Thread Index][Author Index]
2 Line ISS Keps 1-19
- Subject: [sarex] 2 Line ISS Keps 1-19
- From: "Dave Larsen PhD" <doc@xxxxxxxxxxx>
- Date: Wed, 19 Jan 2005 02:39:53 -0800
ISS
1 25544U 98067A 05018.70840538 .00024893 00000-0 20713-3 0 6178
2 25544 51.6474 305.1447 0009471 5.8640 71.7844 15.69924225352182
----
Via the sarex mailing list at AMSAT.ORG courtesy of AMSAT-NA.
To unsubscribe, send "unsubscribe sarex" to Majordomo@amsat.org
AMSAT Home